Regional Weather Roundup
Issued by NWS

Home | Current Version | Previous Version | Text Only | Print | Product List | Glossary Off
Versions: 1 2 3 4 5 6 7 8 9 10 11 12 13 14 15 16 17 18 19 20 21 22 23 24 25 26 27 28 29 30 31 32 33 34 35 36 37 38 39 40 41 42 43 44 45 46 47 48 49

000
ASUS45 KTFX 041610
RWRMT
MONTANA REGIONAL WEATHER ROUNDUP
NATIONAL WEATHER SERVICE GREAT FALLS MT
1000 AM MDT WED MAY 04 2016

NOTE: "FAIR" INDICATES FEW OR NO CLOUDS BELOW 12000 FEET WITH NO
SIGNIFICANT WEATHER AND/OR OBSTRUCTIONS TO VISIBILITY.

MTZ001>007-043-041700-
WEST OF THE DIVIDE

CITY           SKY/WX    TMP DP  RH WIND       PRES   REMARKS
KALISPELL      PTSUNNY   62  41  46 N7        30.01F
MISSOULA       PTSUNNY   57  42  57 CALM      30.08S
BUTTE          SUNNY     60  31  33 VRB3      30.14F
MULLAN PASS    PTSUNNY   54  33  45 SW5       30.12S
ANACONDA         N/A     66  32  28 SE7       30.10F
DEER LODGE       N/A     59  36  41 NE3       30.11F
EUREKA           N/A     61  41  48 CALM      30.00F
HAMILTON         N/A     57  36  44 SW6       30.06F
LIBBY            N/A     57  43  58 CALM      30.01F
PLAINS           N/A     58  47  66 CALM      30.02F
$$

MTZ008-052>055-041700-
SOUTHWEST MONTANA

CITY           SKY/WX    TMP DP  RH WIND       PRES   REMARKS
BOZEMAN        SUNNY     64  35  34 CALM      30.11F
DILLON         CLOUDY    59  31  34 SW5       30.13F
ENNIS          SUNNY     61  32  33 CALM      30.20F
TWIN BRIDGES     N/A     60  31  33 E6        30.11
$$

MTZ009-010-012-014-046-048-049-054-041700-
EAST SLOPES AND CENTRAL MONTANA

CITY           SKY/WX    TMP DP  RH WIND       PRES   REMARKS
CUT BANK       SUNNY     67  41  38 W6        29.98F
GREAT FALLS    SUNNY     70  37  29 S17       29.99F
MALMSTROM AFB  SUNNY     72  38  28 SW14G20   29.99F
HELENA         SUNNY     61  36  39 N3        30.07F
CHOTEAU          N/A     72  37  28 SW12      29.99F
CONRAD           N/A     68  47  46 SE6       30.00F
$$

MTZ011-013-016-021-045-047-050-051-041700-
NORTH CENTRAL MONTANA

CITY           SKY/WX    TMP DP  RH WIND       PRES   REMARKS
HAVRE          SUNNY     65  45  48 CALM      29.97S
LEWISTOWN      SUNNY     73  41  31 MISG      30.03F
N BAR RANCH      N/A     72  43  35 E6        30.06F
CHINOOK          N/A     61  46  59 CALM      29.97F
$$

MTZ017>020-022>027-061-062-041700-
NORTHEAST MONTANA

CITY           SKY/WX    TMP DP  RH WIND       PRES   REMARKS
GLASGOW        SUNNY     69  44  40 SE12      29.99F
JORDAN           N/A     72  45  37 S12       30.00F
SIDNEY         SUNNY     68  45  42 S13       30.04F
WOLF POINT     SUNNY     72  47  40 CALM      30.00F
POPLAR           N/A     72  43  35 S7        30.02F
SCOBEY           N/A     71  40  32 S2        29.99F
$$

MTZ028>42-056>058-041700-
SOUTHCENTRAL AND SOUTHEAST MONTANA

CITY           SKY/WX    TMP DP  RH WIND       PRES   REMARKS
BAKER          SUNNY     73  41  31 S14       30.09F
BILLINGS       SUNNY     67  39  35 SW13      30.07F
LIVINGSTON     SUNNY     68  28  22 W20       30.10F
MILES CITY     SUNNY     69  43  38 SE9       30.04F
EKALAKA          N/A     70  36  28 SE10      30.08F
FORSYTH          N/A     72  46  40 CALM      30.03F
LAUREL           N/A     69  39  33 SW12      30.04F
ROUNDUP          N/A     64  42  44 S10       29.95F
$$

REGIONAL REPORTS...DAKOTAS

CITY           SKY/WX    TMP DP  RH WIND       PRES   REMARKS
WILLISTON      SUNNY     72  44  36 S9        30.03F
MINOT          SUNNY     74  34  23 CALM      30.03F
DICKINSON      SUNNY     71  38  29 SW10      30.06F
BEACH            N/A     73  37  27 S10G16    30.10F
CROSBY           N/A     73  41  31 S13       30.02F
TIOGA            N/A     72  37  28 SW17      30.08F
WATFORD CITY     N/A     73  41  31 SW12G17   30.05F
BISMARCK       SUNNY     63  35  35 S6        30.10F
GRAND FORKS    MOSUNNY   56  36  47 NW8       30.10F
FARGO          SUNNY     59  37  44 N9        30.09F
BUFFALO SD       N/A     72  40  31 S10       30.05F
RAPID CITY     SUNNY     69  45  41 VRB5      30.14F
$$

REGIONAL REPORTS...WYOMING/IDAHO/WASHINGTON

CITY           SKY/WX    TMP DP  RH WIND       PRES   REMARKS
GILLETTE       SUNNY     67  42  40 S17       30.13F
SHERIDAN       SUNNY     66  45  46 CALM      30.09F
BUFFALO WY     SUNNY     68  36  30 SE6       30.15F
CODY           SUNNY     68  30  24 SW15      30.13F
YELLOWSTONE LA   N/A     44  24  45 CALM      30.32F
IDAHO FALLS    PTSUNNY   60  37  42 N6        30.17S
SALMON         MOSUNNY   54  34  47 CALM      30.12F
BOISE          MOSUNNY   66  38  35 NW5       29.99S
SPOKANE        CLOUDY    62  45  53 SW15      30.01S
$$

REGIONAL REPORTS...ALBERTA

CITY           SKY/WX    TMP DP  RH WIND       PRES   REMARKS
EDMONTON       MOSUNNY   72  41  33 W9        29.79F
CALGARY        PTSUNNY   70  30  23 SW6       29.91F
LETHBRIDGE     MOSUNNY   73  41  31 SW6       29.93F
MEDICINE HAT   MOSUNNY   73  43  33 SW9       29.91F
WATERTON GATE    N/A     68  37  32 SW9         N/A
ONEFOUR          N/A     64  46  52 SE6         N/A
$$

REGIONAL REPORTS...SASKATCHEWAN

CITY           SKY/WX    TMP DP  RH WIND       PRES   REMARKS
SWIFT CURRENT  SUNNY     77  39  25 SW17G23   29.91F
REGINA         MOSUNNY   79  39  24 SW13      29.93F
SASKATOON      SUNNY     75  45  33 SW12G20   29.83F
VAL MARIE        N/A     72  41  33 S15         N/A
ROCKGLEN         N/A     73  41  31 SW12G17     N/A
ASSINIBOIA       N/A     77  34  20 W10G21      N/A
$$



USA.gov is the U.S. government's official web portal to all federal, state and local government web resources and services.